Regional Weather Roundup
Issued by NWS Kansas City/Pleasant Hill, MO

Current Version | Previous Version | Text Only | Print | Product List | Glossary On
Versions: 1 2 3 4 5 6 7 8 9 10 11 12 13 14 15 16 17 18 19 20 21 22 23 24 25 26 27 28 29 30 31 32 33 34 35 36 37 38 39 40 41 42 43 44 45 46 47 48 49 50
000
ASUS43 KEAX 190310
RWREAX

WEATHER ROUNDUP FOR EASTERN KANSAS AND NORTHWEST MISSOURI
NATIONAL WEATHER SERVICE KANSAS CITY/PLEASANT HILL MO
900 PM CST WED JAN 18 2017

KSZ040-057-103>105-MOZ028-029-037-043-190400-
...KANSAS CITY METROPOLITAN AREA...

CITY           SKY/WX    TMP DP  RH WIND       PRES   REMARKS
K.C. INTL      CLEAR     38  34  85 SE10      29.96F WCI  31
K.C. DOWNTOWN  CLEAR     41  37  86 CALM      29.97F
LEES SUMMIT    PTCLDY    41  38  89 SE7       29.98F
OLATHE - IXD   CLEAR     39  37  92 E6        29.96F WCI  35
OLATHE - OJC   MOCLDY    39  39 100 SE5       29.96F
LAWRENCE       CLEAR     36  36 100 SE3       29.97F

$$

MOZ001>008-011>017-020>025-030>033-038>040-044>046-053-054-190400-
...NORTHERN AND CENTRAL MISSOURI...

CITY           SKY/WX    TMP DP  RH WIND       PRES   REMARKS
ST. JOSEPH     CLEAR     36  36 100 S7        29.97F WCI  30
MOSBY          CLEAR     34  32  93 CALM      29.99F
WARRENSBURG    CLOUDY    41  36  81 E3        30.00S
WHITEMAN AFB   MOCLDY    43  41  93 E5        29.98F
CLINTON        CLOUDY    45  39  81 CALM      30.01S
SEDALIA        CLOUDY    45  37  73 E3        30.01F
WARSAW         NOT AVBL
CHILLICOTHE      N/A     35  34  96 SE3       30.00F
KIRKSVILLE     FOG       31  31 100 SE5       30.01F VSB 1/2 WCI  26

$$

MOZ041-047>049-056>058-063>065-088>090-097-190400-
...EASTERN AND SOUTHERN MISSOURI...

CITY           SKY/WX    TMP DP  RH WIND       PRES   REMARKS
ST. LOUIS INTL CLOUDY    44  36  73 SE8       30.07F
SPIRIT OF STL  CLOUDY    43  37  79 CALM      30.08R
COLUMBIA       CLOUDY    45  35  68 SE7       30.02F
JEFFERSON CITY CLOUDY    47  36  65 E8        30.03F
ROLLA          CLOUDY    44  38  79 SE7       30.02S
OSAGE BEACH    CLOUDY    47  38  71 SE8       30.03F
SPRINGFIELD    LGT RAIN  43  41  93 SE9       30.00F
BRANSON        CLOUDY    41  41 100 SE8       30.02F FOG
JOPLIN         CLOUDY    46  45  96 SE12      29.98F
WEST PLAINS    CLOUDY    41  40  96 VRB3      30.05F

$$

IAZ060-094-KSZ022-034>040-054-083-096-NEZ052-066-093-190400-
...KANSAS...SOUTHEAST NEBRASKA AND IOWA...

CITY           SKY/WX    TMP DP  RH WIND       PRES   REMARKS
TOPEKA         CLEAR     39  34  82 SE3       29.95F
MANHATTAN      CLOUDY    41  33  73 CALM      29.92S
EMPORIA        MOCLDY    40  37  89 SE8       29.94S WCI  34
CHANUTE        CLOUDY    47  41  80 SE8       29.96F
WICHITA        CLOUDY    46  38  73 SE7       29.92F
OMAHA          PTCLDY    40  34  79 S12       29.89F WCI  33
LINCOLN        CLEAR     36  33  89 S8        29.89S WCI  30
FALLS CITY     CLEAR     35  33  92 SE6       29.93F WCI  30
LAMONI         FOG       36  36 100 S6        29.98S VSB 1/4 WCI  31
DES MOINES     FOG       35  34  96 S10       29.96F VSB 1/2 WCI  27

$$




USA.gov is the U.S. government's official web portal to all federal, state and local government web resources and services.